Dauntless Aviation
Greetings, Guest! To participate, [sign up for a free account] or [log in]
Airports South America Uruguay

Hospital Policial

Montevideo, URUGUAY

Airport Info
Edit

Location

Latitude / Longitude: 34°52'4"S / 56°9'6"W
  34°52.068'S / 56°9.114'W
  -34.8678 / -56.1519
Satellite photo at:
Airport distance calculator
From:
Weather Reports

METAR

SUMU
8.1nm NE
SUMU 211000Z 15007KT 9999 BKN015 13/11 Q1020 TEMPO DZ

TAF

SUAA
7.8nm NW
TAF SUAA 210205Z 2106/2206 20012KT 9999 BKN013 SCT030 TX19/2118Z TN11/2110Z PROB40 TEMPO 2106/2112 16010KT 8000 -SHRA BKN008 PROB30 TEMPO 2107/2112 3000 BR SCT006 BECMG 2113/2115 13010KT 9999 SCT015
SUMU
8.1nm NE
TAF SUMU 210205Z 2106/2206 20012KT 9999 BKN013 SCT030 TX19/2118Z TN11/2110Z PROB40 TEMPO 2106/2112 16010KT 8000 -SHRA BKN008 PROB30 TEMPO 2107/2112 3000 BR SCT006 BECMG 2113/2115 13010KT 9999 SCT015
Safelog

 

Dauntless Aviation

© 2007-2014 Dauntless Aviation, all rights reserved
Information provided via PilotNav comes from a variety of official and unofficial data sources. As errors are possible, do not use PilotNav for primary flight planning purposes. Verify any information that you receive via PilotNav with current and canonical charts and other official documents. The material in this database is subject to database copyrights held by Dauntless Aviation and may not be copied without the express permission of Dauntless Aviation - licenses for use of part of all of this data are available for purchase; enquire via the Dauntless Aviation helpdesk. A number of mechanisms and markers exist in the database to protect against and identify infringement / copyright. Automated queries against this website are stictly prohibited, and all activity is logged and analyzed.